This is the latest recevied weather packets stored in our database for station/object IZ5MMH-14. If no packets are shown the sender has not sent any weather packets the latest 10 day(s).
| Time | Temp. | Humidity | Pressure | Rain* | Wind** | Luminosity | Snow |
|---|---|---|---|---|---|---|---|
| 1777719008 | 23.33° C | 31% | 1024.3 hPa | - | - | - | - |
| 1777718409 | 22.78° C | 32% | 1024.5 hPa | - | - | - | - |
| 1777717808 | 22.22° C | 35% | 1024.6 hPa | - | - | - | - |
| 1777711808 | 20.56° C | 32% | 1025.1 hPa | - | - | - | - |
| 1777711208 | 20.56° C | 40% | 1025.2 hPa | - | - | - | - |
| 1777710608 | 20.56° C | 38% | 1025.3 hPa | - | - | - | - |
| 1777710025 | 21.11° C | 32% | 1025.2 hPa | - | - | - | - |
| 1777709408 | 20.56° C | 34% | 1025.3 hPa | - | - | - | - |
| 1777708808 | 19.44° C | 39% | 1025.2 hPa | - | - | - | - |
| 1777708208 | 20° C | 38% | 1025.3 hPa | - | - | - | - |
| 1777707608 | 20° C | 39% | 1025.3 hPa | - | - | - | - |
| 1777707008 | 20.56° C | 30% | 1025.3 hPa | - | - | - | - |
| 1777706408 | 21.11° C | 29% | 1025.4 hPa | - | - | - | - |
| 1777705808 | 20.56° C | 36% | 1025.5 hPa | - | - | - | - |
| 1777705208 | 19.44° C | 36% | 1025.6 hPa | - | - | - | - |
| 1777704608 | 18.89° C | 36% | 1025.6 hPa | - | - | - | - |
| 1777704008 | 19.44° C | 38% | 1025.6 hPa | - | - | - | - |
| 1777703408 | 18.33° C | 44% | 1025.6 hPa | - | - | - | - |
| 1777702808 | 17.78° C | 44% | 1025.6 hPa | - | - | - | - |
| 1777702208 | 17.22° C | 48% | 1025.6 hPa | - | - | - | - |
| 1777701608 | 16.11° C | 50% | 1025.5 hPa | - | - | - | - |
| 1777701008 | 15° C | 52% | 1025.5 hPa | - | - | - | - |
| 1777700408 | 14.44° C | 53% | 1025.6 hPa | - | - | - | - |
| 1777699808 | 14.44° C | 51% | 1025.7 hPa | - | - | - | - |
| 1777699208 | 13.89° C | 48% | 1025.6 hPa | - | - | - | - |
* Rain since midnight (hover to see other rain measurements)
** Current wind speed in m/s (hover to see current wind gust speed)